AAL1172 KMIA-KLAX

Flight info

Callsign AAL1172
Flight time N/A
Altitude 38000
Route GLADZ4 BAGGS REMIS Y280 REDFN KH84I SAT FST WATEX RUTER BOLIC NABOB HIPPI GABBL HLYWD1
Aircraft B772/H-SDE2E3FGHIJ5LORVWXY/LB1D1

Departure

Time N/A
Airport Miami International Airport (KMIA)

Arrival

Time 2026-05-06 02:32
Airport Los Angeles International Airport (KLAX)
Time Latitude Longitude Altitude Speed Heading
2026-05-05 22:40 28.91784 -89.47985 37967 ft 407 kts 277°
2026-05-05 22:40 28.91919 -89.51215 37971 ft 407 kts 277°
2026-05-05 22:41 28.92186 -89.57663 37958 ft 407 kts 277°
2026-05-05 22:41 28.92452 -89.64145 37970 ft 407 kts 277°
2026-05-05 22:42 28.92714 -89.70607 37962 ft 407 kts 277°
2026-05-05 22:42 28.92972 -89.77071 37969 ft 407 kts 277°
2026-05-05 22:43 28.93226 -89.83494 37957 ft 407 kts 277°
2026-05-05 22:43 28.93479 -89.89957 37965 ft 407 kts 277°
2026-05-05 22:44 28.93728 -89.96418 37954 ft 407 kts 277°
2026-05-05 22:44 28.93974 -90.02886 37959 ft 407 kts 277°
2026-05-05 22:45 28.94218 -90.09343 37955 ft 407 kts 277°
2026-05-05 22:45 28.94458 -90.15806 37956 ft 407 kts 277°
2026-05-05 22:46 28.94694 -90.22240 37949 ft 407 kts 277°
2026-05-05 22:46 28.94927 -90.28698 37950 ft 407 kts 277°
2026-05-05 22:47 28.95158 -90.35148 37944 ft 406 kts 277°
2026-05-05 22:47 28.95385 -90.41605 37949 ft 406 kts 277°
2026-05-05 22:48 28.95572 -90.46965 37942 ft 406 kts 277°
2026-05-05 22:48 28.95793 -90.53407 37943 ft 406 kts 277°
2026-05-05 22:49 28.96011 -90.59835 37940 ft 405 kts 277°
2026-05-05 22:49 28.96226 -90.66265 37936 ft 405 kts 277°
2026-05-05 22:50 28.96438 -90.72694 37935 ft 405 kts 277°
2026-05-05 22:50 28.96646 -90.79127 37933 ft 405 kts 277°
2026-05-05 22:51 28.96852 -90.85551 37936 ft 405 kts 277°
2026-05-05 22:51 28.97053 -90.91929 37934 ft 405 kts 277°
2026-05-05 22:52 28.97252 -90.98355 37935 ft 404 kts 277°
2026-05-05 22:52 28.97448 -91.04773 37931 ft 404 kts 277°
2026-05-05 22:53 28.97641 -91.11190 37928 ft 404 kts 277°
2026-05-05 22:53 28.97831 -91.17604 37929 ft 404 kts 277°
2026-05-05 22:54 28.98018 -91.24020 37928 ft 404 kts 277°
2026-05-05 22:54 28.98202 -91.30428 37922 ft 404 kts 277°
2026-05-05 22:55 28.98382 -91.36834 37926 ft 403 kts 277°
2026-05-05 22:55 28.98558 -91.43198 37916 ft 403 kts 277°
2026-05-05 22:56 28.98733 -91.49603 37916 ft 403 kts 277°
2026-05-05 22:56 28.98904 -91.56000 37914 ft 403 kts 277°
2026-05-05 22:57 28.99072 -91.62398 37912 ft 403 kts 277°
2026-05-05 22:57 28.99237 -91.68794 37918 ft 402 kts 277°
2026-05-05 22:58 28.99399 -91.75187 37913 ft 402 kts 277°
2026-05-05 22:58 28.99558 -91.81572 37914 ft 402 kts 277°
2026-05-05 22:59 28.99713 -91.87924 37907 ft 402 kts 277°
2026-05-05 22:59 28.99867 -91.94313 37907 ft 402 kts 277°
2026-05-05 23:00 29.00445 -92.03835 37905 ft 397 kts 282°
2026-05-05 23:00 29.01234 -92.10079 37905 ft 397 kts 282°
2026-05-05 23:01 29.02016 -92.16332 37896 ft 397 kts 282°
2026-05-05 23:01 29.02784 -92.22543 37906 ft 397 kts 282°
2026-05-05 23:02 29.03549 -92.28781 37899 ft 396 kts 282°
2026-05-05 23:02 29.04312 -92.35033 37906 ft 396 kts 282°
2026-05-05 23:03 29.05071 -92.41280 37904 ft 396 kts 282°
2026-05-05 23:03 29.05822 -92.47465 37904 ft 395 kts 282°
2026-05-05 23:04 29.06570 -92.53680 37893 ft 395 kts 282°
2026-05-05 23:04 29.07315 -92.59892 37885 ft 394 kts 282°
2026-05-05 23:05 29.08058 -92.66108 37884 ft 394 kts 282°
2026-05-05 23:05 29.08800 -92.72335 37878 ft 395 kts 282°
2026-05-05 23:06 29.09539 -92.78559 37888 ft 395 kts 282°
2026-05-05 23:06 29.10275 -92.84787 37882 ft 396 kts 281°
2026-05-05 23:07 29.11006 -92.90998 37882 ft 396 kts 281°
2026-05-05 23:07 29.11739 -92.97246 37882 ft 397 kts 281°
2026-05-05 23:08 29.12470 -93.03511 37877 ft 397 kts 281°
2026-05-05 23:08 29.13199 -93.09782 37877 ft 398 kts 281°
2026-05-05 23:09 29.13926 -93.16061 37879 ft 398 kts 281°
2026-05-05 23:09 29.14651 -93.22351 37877 ft 399 kts 281°
2026-05-05 23:10 29.15374 -93.28654 37877 ft 399 kts 281°
2026-05-05 23:10 29.16090 -93.34918 37871 ft 400 kts 281°
2026-05-05 23:11 29.16808 -93.41227 37877 ft 400 kts 281°
2026-05-05 23:11 29.17525 -93.47546 37873 ft 400 kts 281°
2026-05-05 23:12 29.18238 -93.53864 37875 ft 400 kts 281°
2026-05-05 23:12 29.18948 -93.60184 37872 ft 400 kts 280°
2026-05-05 23:13 29.19656 -93.66509 37865 ft 401 kts 280°
2026-05-05 23:13 29.20356 -93.72792 37865 ft 401 kts 280°
2026-05-05 23:14 29.21058 -93.79121 37866 ft 401 kts 280°
2026-05-05 23:14 29.21757 -93.85450 37868 ft 401 kts 280°
2026-05-05 23:15 29.22453 -93.91787 37861 ft 401 kts 280°
2026-05-05 23:15 29.23148 -93.98134 37864 ft 401 kts 279°
2026-05-05 23:16 29.23841 -94.04487 37875 ft 402 kts 279°
2026-05-05 23:16 29.24531 -94.10847 37869 ft 402 kts 279°
2026-05-05 23:17 29.25212 -94.17160 37868 ft 402 kts 279°
2026-05-05 23:17 29.25897 -94.23527 37869 ft 402 kts 279°
2026-05-05 23:18 29.26578 -94.29891 37868 ft 403 kts 279°
2026-05-05 23:18 29.27257 -94.36265 37856 ft 403 kts 279°
2026-05-05 23:19 29.27929 -94.42599 37862 ft 403 kts 279°
2026-05-05 23:19 29.28603 -94.48984 37867 ft 403 kts 279°
2026-05-05 23:20 29.29274 -94.55367 37861 ft 403 kts 279°
2026-05-05 23:20 29.29938 -94.61715 37863 ft 403 kts 279°
2026-05-05 23:21 29.30603 -94.68107 37866 ft 403 kts 278°
2026-05-05 23:21 29.31265 -94.74500 37859 ft 403 kts 278°
2026-05-05 23:22 29.31921 -94.80852 37862 ft 403 kts 278°
2026-05-05 23:22 29.32576 -94.87236 37858 ft 404 kts 278°
2026-05-05 23:23 29.33229 -94.93633 37862 ft 404 kts 278°
2026-05-05 23:23 29.33554 -94.96827 37859 ft 404 kts 278°
2026-05-05 23:24 29.34113 -95.02336 37862 ft 404 kts 278°
2026-05-05 23:24 29.34759 -95.08733 37863 ft 404 kts 278°
2026-05-05 23:25 29.35403 -95.15137 37849 ft 404 kts 278°
2026-05-05 23:25 29.36043 -95.21536 37853 ft 404 kts 278°
2026-05-05 23:26 29.36682 -95.27955 37855 ft 405 kts 278°
2026-05-05 23:26 29.37312 -95.34322 37851 ft 405 kts 278°
2026-05-05 23:27 29.37945 -95.40737 37852 ft 405 kts 278°
2026-05-05 23:27 29.38575 -95.47163 37852 ft 405 kts 277°
2026-05-05 23:28 29.39201 -95.53583 37852 ft 405 kts 277°
2026-05-05 23:28 29.39826 -95.60018 37851 ft 405 kts 277°
2026-05-05 23:29 29.40446 -95.66448 37849 ft 406 kts 277°
2026-05-05 23:29 29.41065 -95.72888 37831 ft 406 kts 277°
2026-05-05 23:30 29.41577 -95.78238 37834 ft 406 kts 277°
2026-05-05 23:30 29.42291 -95.85739 37829 ft 406 kts 277°
2026-05-05 23:31 29.42901 -95.92187 37831 ft 407 kts 277°
2026-05-05 23:31 29.43509 -95.98645 37828 ft 407 kts 277°
2026-05-05 23:32 29.44110 -96.05068 37828 ft 407 kts 277°
2026-05-05 23:32 29.44712 -96.11529 37821 ft 407 kts 276°
2026-05-05 23:33 29.45311 -96.17996 37806 ft 407 kts 276°
2026-05-05 23:33 29.45907 -96.24465 37807 ft 407 kts 276°
2026-05-05 23:34 29.46500 -96.30943 37807 ft 407 kts 276°
2026-05-05 23:34 29.46990 -96.36315 37805 ft 407 kts 276°
2026-05-05 23:35 29.47578 -96.42786 37797 ft 407 kts 276°
2026-05-05 23:35 29.48159 -96.49226 37784 ft 407 kts 276°
2026-05-05 23:36 29.48740 -96.55700 37767 ft 408 kts 276°
2026-05-05 23:36 29.49318 -96.62173 37750 ft 408 kts 276°
2026-05-05 23:37 29.49893 -96.68654 37730 ft 408 kts 276°
2026-05-05 23:37 29.50465 -96.75127 37721 ft 407 kts 275°
2026-05-05 23:38 29.51034 -96.81614 37735 ft 407 kts 275°
2026-05-05 23:38 29.51600 -96.88096 37739 ft 407 kts 275°
2026-05-05 23:39 29.52158 -96.94524 37747 ft 407 kts 275°
2026-05-05 23:39 29.52715 -97.00986 37752 ft 407 kts 275°
2026-05-05 23:40 29.53270 -97.07449 37757 ft 406 kts 275°
2026-05-05 23:40 29.53821 -97.13911 37763 ft 406 kts 275°
2026-05-05 23:41 29.54368 -97.20363 37764 ft 406 kts 275°
2026-05-05 23:41 29.54913 -97.26818 37767 ft 406 kts 274°
2026-05-05 23:42 29.55451 -97.33236 37768 ft 405 kts 274°
2026-05-05 23:42 29.55988 -97.39686 37764 ft 405 kts 274°
2026-05-05 23:43 29.56522 -97.46128 37766 ft 405 kts 274°
2026-05-05 23:43 29.57053 -97.52571 37758 ft 405 kts 274°
2026-05-05 23:44 29.57580 -97.59008 37751 ft 405 kts 274°
2026-05-05 23:44 29.58105 -97.65436 37746 ft 404 kts 272°
2026-05-05 23:45 29.58624 -97.71869 37746 ft 404 kts 272°
2026-05-05 23:45 29.59141 -97.78304 37739 ft 404 kts 272°
2026-05-05 23:46 29.59651 -97.84691 37743 ft 404 kts 272°
2026-05-05 23:46 29.60163 -97.91134 37738 ft 405 kts 272°
2026-05-05 23:47 29.60672 -97.97577 37739 ft 405 kts 272°
2026-05-05 23:47 29.61178 -98.04028 37783 ft 405 kts 271°
2026-05-05 23:48 29.61680 -98.10477 37782 ft 405 kts 271°
2026-05-05 23:48 29.62179 -98.16922 37764 ft 405 kts 271°
2026-05-05 23:49 29.62675 -98.23360 37769 ft 405 kts 271°
2026-05-05 23:49 29.63169 -98.29812 37766 ft 405 kts 271°
2026-05-05 23:50 29.63659 -98.36260 37766 ft 405 kts 271°
2026-05-05 23:50 29.64177 -98.42672 37783 ft 406 kts 274°
2026-05-05 23:51 29.65353 -98.49048 37783 ft 410 kts 280°
2026-05-05 23:51 29.67193 -98.55284 37786 ft 413 kts 283°
2026-05-05 23:52 29.69147 -98.61506 37771 ft 413 kts 284°
2026-05-05 23:52 29.71088 -98.67718 37768 ft 412 kts 283°
2026-05-05 23:53 29.73002 -98.73895 37757 ft 412 kts 283°
2026-05-05 23:53 29.74917 -98.80109 37760 ft 412 kts 283°
2026-05-05 23:54 29.76826 -98.86322 37768 ft 411 kts 283°
2026-05-05 23:54 29.78731 -98.92532 37789 ft 411 kts 283°
2026-05-05 23:55 29.80633 -98.98746 37795 ft 411 kts 283°
2026-05-05 23:55 29.82529 -99.04951 37806 ft 411 kts 283°
2026-05-05 23:56 29.84421 -99.11156 37817 ft 411 kts 283°
2026-05-05 23:56 29.86302 -99.17335 37817 ft 410 kts 283°
2026-05-05 23:57 29.88188 -99.23542 37802 ft 410 kts 282°
2026-05-05 23:57 29.90072 -99.29753 37785 ft 410 kts 282°
2026-05-05 23:58 29.91950 -99.35958 37792 ft 410 kts 282°
2026-05-05 23:58 29.93827 -99.42170 37766 ft 410 kts 282°
2026-05-05 23:59 29.95701 -99.48389 37741 ft 410 kts 282°
2026-05-05 23:59 29.97569 -99.54596 37734 ft 409 kts 282°
2026-05-06 00:00 29.99421 -99.60760 37726 ft 409 kts 282°
2026-05-06 00:00 30.01280 -99.66964 37724 ft 409 kts 282°
2026-05-06 00:01 30.03136 -99.73168 37722 ft 409 kts 282°
2026-05-06 00:01 30.04989 -99.79372 37731 ft 408 kts 282°
2026-05-06 00:02 30.06835 -99.85565 37751 ft 408 kts 282°
2026-05-06 00:02 30.08677 -99.91759 37778 ft 407 kts 282°
2026-05-06 00:03 30.10503 -99.97910 37792 ft 407 kts 282°
2026-05-06 00:03 30.12335 -100.04093 37799 ft 407 kts 282°
2026-05-06 00:04 30.14164 -100.10279 37803 ft 406 kts 282°
2026-05-06 00:04 30.15990 -100.16464 37806 ft 406 kts 282°
2026-05-06 00:05 30.18714 -100.25720 37776 ft 405 kts 282°
2026-05-06 00:06 30.20527 -100.31893 37754 ft 405 kts 282°
2026-05-06 00:06 30.22335 -100.38062 37727 ft 405 kts 282°
2026-05-06 00:07 30.24133 -100.44209 37718 ft 405 kts 282°
2026-05-06 00:07 30.25936 -100.50384 37729 ft 405 kts 282°
2026-05-06 00:08 30.27739 -100.56572 37745 ft 406 kts 282°
2026-05-06 00:08 30.29540 -100.62767 37762 ft 406 kts 282°
2026-05-06 00:09 30.31342 -100.68973 37768 ft 407 kts 282°
2026-05-06 00:09 30.33142 -100.75188 37777 ft 407 kts 282°
2026-05-06 00:10 30.34939 -100.81404 37781 ft 407 kts 281°
2026-05-06 00:10 30.36737 -100.87637 37769 ft 408 kts 281°
2026-05-06 00:11 30.38531 -100.93874 37761 ft 408 kts 281°
2026-05-06 00:11 30.40329 -101.00129 37743 ft 409 kts 281°
2026-05-06 00:12 30.42118 -101.06366 37754 ft 410 kts 281°
2026-05-06 00:12 30.43914 -101.12645 37760 ft 411 kts 281°
2026-05-06 00:13 30.45711 -101.18936 37775 ft 411 kts 281°
2026-05-06 00:13 30.47508 -101.25242 37782 ft 412 kts 281°
2026-05-06 00:14 30.49303 -101.31551 37784 ft 412 kts 281°
2026-05-06 00:14 30.51098 -101.37876 37786 ft 413 kts 281°
2026-05-06 00:15 30.52892 -101.44210 37785 ft 413 kts 281°
2026-05-06 00:15 30.54685 -101.50551 37754 ft 413 kts 281°
2026-05-06 00:16 30.56472 -101.56885 37749 ft 412 kts 281°
2026-05-06 00:16 30.58236 -101.63152 37747 ft 411 kts 281°
2026-05-06 00:17 30.60009 -101.69464 37746 ft 410 kts 281°
2026-05-06 00:17 30.61773 -101.75760 37759 ft 410 kts 281°
2026-05-06 00:18 30.63534 -101.82053 37765 ft 409 kts 281°
2026-05-06 00:18 30.65285 -101.88328 37762 ft 408 kts 280°
2026-05-06 00:19 30.67031 -101.94596 37763 ft 408 kts 280°
2026-05-06 00:19 30.68479 -101.99801 37751 ft 407 kts 280°
2026-05-06 00:20 30.70498 -102.07080 37762 ft 406 kts 280°
2026-05-06 00:20 30.71944 -102.12303 37759 ft 405 kts 280°
2026-05-06 00:21 30.73667 -102.18539 37767 ft 404 kts 280°
2026-05-06 00:21 30.75380 -102.24751 37765 ft 403 kts 280°
2026-05-06 00:22 30.77084 -102.30941 37764 ft 401 kts 279°
2026-05-06 00:22 30.78767 -102.37069 37762 ft 399 kts 279°
2026-05-06 00:23 30.80449 -102.43206 37760 ft 397 kts 279°
2026-05-06 00:23 30.82119 -102.49315 37763 ft 396 kts 279°
2026-05-06 00:24 30.83785 -102.55420 37776 ft 395 kts 279°
2026-05-06 00:24 30.85434 -102.61476 37801 ft 394 kts 279°
2026-05-06 00:25 30.87088 -102.67563 37828 ft 394 kts 279°
2026-05-06 00:25 30.88739 -102.73653 37857 ft 394 kts 279°
2026-05-06 00:26 30.90389 -102.79750 37879 ft 395 kts 279°
2026-05-06 00:26 30.92036 -102.85845 37885 ft 395 kts 279°
2026-05-06 00:27 30.93683 -102.91957 37884 ft 395 kts 278°
2026-05-06 00:27 30.95330 -102.98074 37880 ft 396 kts 279°
2026-05-06 00:28 30.97180 -103.04118 37868 ft 400 kts 281°
2026-05-06 00:28 30.99158 -103.10188 37838 ft 401 kts 281°
2026-05-06 00:29 31.01125 -103.16276 37806 ft 401 kts 281°
2026-05-06 00:29 31.03072 -103.22385 37785 ft 402 kts 281°
2026-05-06 00:30 31.05008 -103.28503 37758 ft 403 kts 281°
2026-05-06 00:30 31.06945 -103.34642 37762 ft 403 kts 280°
2026-05-06 00:31 31.08861 -103.40726 37779 ft 404 kts 280°
2026-05-06 00:31 31.10795 -103.46882 37787 ft 404 kts 280°
2026-05-06 00:32 31.12730 -103.53048 37793 ft 403 kts 280°
2026-05-06 00:32 31.14657 -103.59201 37804 ft 403 kts 280°
2026-05-06 00:33 31.16577 -103.65345 37798 ft 402 kts 280°
2026-05-06 00:33 31.18491 -103.71482 37798 ft 401 kts 280°
2026-05-06 00:34 31.20391 -103.77583 37790 ft 401 kts 280°
2026-05-06 00:34 31.22296 -103.83717 37780 ft 400 kts 280°
2026-05-06 00:35 31.24179 -103.89789 37770 ft 399 kts 280°
2026-05-06 00:35 31.26066 -103.95887 37773 ft 399 kts 280°
2026-05-06 00:36 31.27947 -104.01978 37772 ft 399 kts 279°
2026-05-06 00:36 31.29827 -104.08076 37776 ft 399 kts 279°
2026-05-06 00:37 31.31704 -104.14176 37780 ft 399 kts 279°
2026-05-06 00:37 31.33579 -104.20284 37786 ft 399 kts 279°
2026-05-06 00:38 31.35452 -104.26392 37786 ft 399 kts 279°
2026-05-06 00:38 31.37325 -104.32516 37788 ft 399 kts 279°
2026-05-06 00:39 31.39179 -104.38591 37782 ft 399 kts 279°
2026-05-06 00:39 31.41042 -104.44702 37783 ft 398 kts 279°
2026-05-06 00:40 31.42901 -104.50812 37781 ft 398 kts 279°
2026-05-06 00:40 31.44753 -104.56916 37786 ft 398 kts 279°
2026-05-06 00:41 31.46604 -104.63021 37783 ft 396 kts 278°
2026-05-06 00:41 31.48442 -104.69098 37783 ft 395 kts 278°
2026-05-06 00:42 31.50271 -104.75160 37767 ft 394 kts 278°
2026-05-06 00:42 31.52083 -104.81181 37769 ft 394 kts 278°
2026-05-06 00:43 31.53905 -104.87244 37776 ft 394 kts 278°
2026-05-06 00:43 31.55722 -104.93303 37774 ft 394 kts 278°
2026-05-06 00:44 31.57540 -104.99374 37769 ft 394 kts 278°
2026-05-06 00:44 31.59355 -105.05450 37770 ft 394 kts 278°
2026-05-06 00:45 31.61167 -105.11525 37769 ft 395 kts 278°
2026-05-06 00:45 31.62977 -105.17606 37763 ft 395 kts 278°
2026-05-06 00:46 31.64787 -105.23701 37768 ft 395 kts 278°
2026-05-06 00:46 31.66594 -105.29793 37756 ft 395 kts 278°
2026-05-06 00:47 31.68390 -105.35865 37769 ft 396 kts 278°
2026-05-06 00:47 31.70194 -105.41976 37759 ft 396 kts 278°
2026-05-06 00:48 31.71996 -105.48089 37762 ft 396 kts 278°
2026-05-06 00:48 31.73795 -105.54202 37770 ft 396 kts 278°
2026-05-06 00:49 31.75589 -105.60316 37771 ft 395 kts 278°
2026-05-06 00:49 31.77370 -105.66398 37771 ft 396 kts 278°
2026-05-06 00:50 31.79160 -105.72524 37770 ft 396 kts 278°
2026-05-06 00:50 31.80950 -105.78659 37771 ft 396 kts 278°
2026-05-06 00:51 31.82736 -105.84791 37772 ft 396 kts 278°
2026-05-06 00:51 31.84476 -105.90781 37774 ft 397 kts 277°
2026-05-06 00:52 31.86260 -105.96932 37771 ft 397 kts 278°
2026-05-06 00:52 31.88039 -106.03079 37803 ft 396 kts 277°
2026-05-06 00:53 31.89813 -106.09220 37828 ft 396 kts 277°
2026-05-06 00:53 31.91569 -106.15313 37852 ft 395 kts 277°
2026-05-06 00:54 31.93330 -106.21438 37871 ft 394 kts 277°
2026-05-06 00:54 31.95088 -106.27547 37889 ft 395 kts 278°
2026-05-06 00:55 31.97396 -106.33541 37883 ft 407 kts 285°
2026-05-06 00:55 32.00401 -106.39298 37879 ft 415 kts 290°
2026-05-06 00:56 32.03595 -106.44986 37859 ft 416 kts 290°
2026-05-06 00:56 32.06784 -106.50688 37827 ft 416 kts 290°
2026-05-06 00:57 32.09951 -106.56393 37841 ft 415 kts 290°
2026-05-06 00:57 32.13094 -106.62079 37832 ft 415 kts 290°
2026-05-06 00:58 32.16246 -106.67794 37850 ft 415 kts 290°
2026-05-06 00:58 32.19399 -106.73513 37891 ft 414 kts 290°
2026-05-06 00:59 32.22540 -106.79221 37924 ft 413 kts 290°
2026-05-06 00:59 32.25641 -106.84867 37953 ft 412 kts 290°
2026-05-06 01:00 32.28752 -106.90541 37958 ft 411 kts 289°
2026-05-06 01:00 32.31777 -106.96267 37965 ft 410 kts 288°
2026-05-06 01:01 32.34761 -107.02016 37950 ft 411 kts 288°
2026-05-06 01:01 32.37754 -107.07779 37887 ft 411 kts 288°
2026-05-06 01:02 32.40755 -107.13548 37852 ft 412 kts 288°
2026-05-06 01:02 32.43764 -107.19334 37808 ft 413 kts 288°
2026-05-06 01:03 32.46785 -107.25153 37777 ft 414 kts 288°
2026-05-06 01:03 32.49792 -107.30949 37757 ft 416 kts 288°
2026-05-06 01:04 32.52823 -107.36805 37758 ft 417 kts 288°
2026-05-06 01:04 32.55862 -107.42682 37769 ft 418 kts 288°
2026-05-06 01:05 32.58906 -107.48577 37762 ft 419 kts 287°
2026-05-06 01:05 32.61945 -107.54472 37766 ft 419 kts 287°
2026-05-06 01:06 32.64965 -107.60341 37761 ft 419 kts 287°
2026-05-06 01:06 32.68000 -107.66247 37776 ft 418 kts 287°
2026-05-06 01:07 32.70517 -107.71152 37770 ft 418 kts 287°
2026-05-06 01:07 32.73535 -107.77045 37795 ft 417 kts 287°
2026-05-06 01:08 32.76546 -107.82932 37819 ft 416 kts 287°
2026-05-06 01:08 32.79550 -107.88814 37846 ft 416 kts 287°
2026-05-06 01:09 32.82533 -107.94670 37855 ft 417 kts 287°
2026-05-06 01:09 32.85532 -108.00562 37867 ft 415 kts 287°
2026-05-06 01:10 32.88522 -108.06447 37852 ft 416 kts 287°
2026-05-06 01:10 32.91509 -108.12329 37848 ft 414 kts 287°
2026-05-06 01:11 32.94479 -108.18187 37838 ft 414 kts 287°
2026-05-06 01:11 32.97436 -108.24042 37793 ft 416 kts 287°
2026-05-06 01:12 33.00418 -108.29952 37787 ft 417 kts 287°
2026-05-06 01:12 33.03406 -108.35876 37801 ft 417 kts 287°
2026-05-06 01:13 33.06394 -108.41810 37797 ft 416 kts 287°
2026-05-06 01:13 33.09370 -108.47731 37804 ft 417 kts 287°
2026-05-06 01:14 33.13842 -108.56648 37823 ft 418 kts 287°
2026-05-06 01:14 33.16829 -108.62614 37824 ft 418 kts 287°
2026-05-06 01:15 33.19808 -108.68584 37826 ft 418 kts 287°
2026-05-06 01:15 33.22790 -108.74564 37826 ft 419 kts 287°
2026-05-06 01:16 33.25756 -108.80517 37803 ft 420 kts 287°
2026-05-06 01:16 33.28740 -108.86513 37813 ft 419 kts 287°
2026-05-06 01:17 33.31715 -108.92504 37818 ft 417 kts 287°
2026-05-06 01:17 33.34677 -108.98484 37812 ft 418 kts 287°
2026-05-06 01:18 33.37642 -109.04478 37820 ft 418 kts 287°
2026-05-06 01:18 33.40606 -109.10481 37828 ft 420 kts 288°
2026-05-06 01:19 33.43564 -109.16483 37820 ft 422 kts 288°
2026-05-06 01:19 33.46552 -109.22551 37828 ft 423 kts 288°
2026-05-06 01:20 33.49532 -109.28611 37838 ft 422 kts 288°
2026-05-06 01:20 33.52511 -109.34681 37848 ft 422 kts 288°
2026-05-06 01:21 33.55489 -109.40764 37845 ft 424 kts 288°
2026-05-06 01:21 33.58453 -109.46826 37847 ft 424 kts 288°
2026-05-06 01:22 33.61432 -109.52925 37822 ft 424 kts 289°
2026-05-06 01:22 33.64402 -109.59026 37804 ft 423 kts 288°
2026-05-06 01:23 33.65877 -109.62066 37914 ft 421 kts 288°
2026-05-06 01:23 33.67357 -109.65108 37903 ft 423 kts 288°
2026-05-06 01:23 33.70335 -109.71233 37870 ft 425 kts 288°
2026-05-06 01:24 33.73321 -109.77389 37871 ft 427 kts 288°
2026-05-06 01:24 33.76312 -109.83567 37863 ft 428 kts 288°
2026-05-06 01:25 33.79304 -109.89756 37877 ft 428 kts 289°
2026-05-06 01:25 33.82296 -109.95961 37864 ft 429 kts 289°
2026-05-06 01:26 33.85269 -110.02134 37859 ft 429 kts 289°
2026-05-06 01:26 33.88259 -110.08357 37862 ft 429 kts 289°
2026-05-06 01:27 33.91249 -110.14585 37852 ft 429 kts 289°
2026-05-06 01:27 33.94235 -110.20822 37863 ft 430 kts 289°
2026-05-06 01:28 33.97225 -110.27078 37847 ft 431 kts 289°
2026-05-06 01:28 34.00220 -110.33355 37853 ft 431 kts 288°
2026-05-06 01:29 34.02690 -110.39791 37851 ft 422 kts 282°
2026-05-06 01:29 34.04864 -110.46397 37856 ft 423 kts 282°
2026-05-06 01:30 34.07043 -110.53010 37855 ft 424 kts 282°
2026-05-06 01:30 34.09234 -110.59624 37871 ft 425 kts 282°
2026-05-06 01:31 34.11423 -110.66233 37877 ft 427 kts 283°
2026-05-06 01:31 34.13632 -110.72911 37896 ft 428 kts 283°
2026-05-06 01:32 34.15839 -110.79602 37874 ft 429 kts 283°
2026-05-06 01:32 34.18047 -110.86303 37884 ft 429 kts 283°
2026-05-06 01:33 34.20237 -110.92969 37899 ft 430 kts 283°
2026-05-06 01:33 34.22446 -110.99711 37931 ft 432 kts 283°
2026-05-06 01:34 34.24659 -111.06477 37947 ft 433 kts 283°
2026-05-06 01:34 34.26869 -111.13243 37983 ft 433 kts 283°
2026-05-06 01:35 34.29081 -111.20043 38013 ft 434 kts 283°
2026-05-06 01:35 34.31294 -111.26852 38020 ft 435 kts 283°
2026-05-06 01:36 34.32991 -111.33744 38020 ft 427 kts 275°
2026-05-06 01:36 34.33869 -111.40788 38017 ft 423 kts 271°
2026-05-06 01:37 34.34615 -111.47858 37984 ft 424 kts 271°
2026-05-06 01:37 34.35367 -111.54937 37968 ft 425 kts 271°
2026-05-06 01:38 34.36132 -111.62057 37928 ft 427 kts 272°
2026-05-06 01:38 34.36899 -111.69197 37894 ft 429 kts 272°
2026-05-06 01:39 34.37662 -111.76331 37852 ft 431 kts 272°
2026-05-06 01:39 34.38434 -111.83578 37860 ft 431 kts 272°
2026-05-06 01:40 34.39193 -111.90754 37850 ft 433 kts 272°
2026-05-06 01:40 34.39955 -111.97996 37859 ft 435 kts 272°
2026-05-06 01:41 34.40716 -112.05273 37840 ft 436 kts 272°
2026-05-06 01:41 34.41475 -112.12579 37864 ft 437 kts 272°
2026-05-06 01:42 34.42169 -112.19300 37869 ft 438 kts 272°
2026-05-06 01:42 34.42923 -112.26629 37919 ft 439 kts 272°
2026-05-06 01:43 34.43675 -112.33987 37906 ft 440 kts 272°
2026-05-06 01:43 34.44419 -112.41306 37927 ft 441 kts 272°
2026-05-06 01:44 34.45163 -112.48693 37918 ft 443 kts 272°
2026-05-06 01:44 34.45906 -112.56111 37914 ft 444 kts 272°
2026-05-06 01:45 34.46650 -112.63557 37901 ft 446 kts 272°
2026-05-06 01:45 34.47390 -112.71027 37875 ft 447 kts 272°
2026-05-06 01:46 34.48128 -112.78522 37853 ft 448 kts 272°
2026-05-06 01:46 34.48863 -112.86046 37841 ft 449 kts 272°
2026-05-06 01:47 34.49591 -112.93539 37841 ft 450 kts 272°
2026-05-06 01:47 34.50321 -113.01095 37848 ft 451 kts 273°
2026-05-06 01:48 34.51048 -113.08673 37843 ft 452 kts 273°
2026-05-06 01:48 34.51770 -113.16249 37845 ft 453 kts 273°
2026-05-06 01:49 34.52488 -113.23843 37846 ft 454 kts 273°
2026-05-06 01:49 34.53204 -113.31460 37843 ft 455 kts 273°
2026-05-06 01:50 34.53917 -113.39094 37833 ft 455 kts 273°
2026-05-06 01:50 34.54626 -113.46733 37844 ft 455 kts 274°
2026-05-06 01:51 34.55326 -113.54325 37833 ft 456 kts 274°
2026-05-06 01:51 34.55933 -113.61996 37832 ft 455 kts 269°
2026-05-06 01:52 34.55643 -113.69633 37834 ft 452 kts 261°
2026-05-06 01:52 34.54781 -113.77188 37832 ft 452 kts 260°
2026-05-06 01:53 34.53916 -113.84755 37831 ft 453 kts 261°
2026-05-06 01:53 34.53077 -113.92303 37827 ft 454 kts 261°
2026-05-06 01:54 34.52236 -113.99901 37839 ft 454 kts 261°
2026-05-06 01:54 34.51330 -114.07469 37853 ft 452 kts 257°
2026-05-06 01:55 34.49823 -114.14872 37866 ft 452 kts 254°
2026-05-06 01:55 34.48145 -114.22212 37871 ft 452 kts 254°
2026-05-06 01:56 34.46524 -114.29553 37874 ft 453 kts 255°
2026-05-06 01:56 34.44940 -114.36941 37870 ft 453 kts 255°
2026-05-06 01:57 34.43362 -114.44334 37869 ft 452 kts 255°
2026-05-06 01:57 34.41790 -114.51675 37861 ft 453 kts 255°
2026-05-06 01:58 34.40200 -114.59062 37852 ft 453 kts 255°
2026-05-06 01:58 34.38607 -114.66436 37843 ft 453 kts 255°
2026-05-06 01:59 34.37008 -114.73820 37838 ft 453 kts 255°
2026-05-06 01:59 34.35404 -114.81200 37842 ft 453 kts 255°
2026-05-06 02:00 34.33795 -114.88586 37847 ft 454 kts 255°
2026-05-06 02:00 34.32187 -114.95939 37845 ft 454 kts 255°
2026-05-06 02:01 34.30565 -115.03326 37848 ft 454 kts 255°
2026-05-06 02:01 34.28938 -115.10720 37849 ft 455 kts 255°
2026-05-06 02:02 34.27308 -115.18115 37853 ft 455 kts 255°
2026-05-06 02:02 34.25686 -115.25509 37851 ft 455 kts 255°
2026-05-06 02:03 34.24109 -115.32937 37860 ft 456 kts 255°
2026-05-06 02:03 34.22532 -115.40361 37853 ft 456 kts 255°
2026-05-06 02:04 34.20951 -115.47749 37858 ft 457 kts 255°
2026-05-06 02:04 34.19355 -115.55176 37870 ft 457 kts 255°
2026-05-06 02:05 34.17750 -115.62622 37863 ft 458 kts 255°
2026-05-06 02:05 34.16182 -115.70076 37870 ft 458 kts 258°
2026-05-06 02:06 34.15372 -115.77694 37870 ft 453 kts 264°
2026-05-06 02:06 34.14794 -115.85200 37900 ft 448 kts 263°
2026-05-06 02:07 34.14096 -115.92704 37927 ft 451 kts 262°
2026-05-06 02:07 34.13353 -116.00229 37901 ft 449 kts 262°
2026-05-06 02:08 34.12988 -116.03942 37565 ft 442 kts 263°
2026-05-06 02:08 34.12625 -116.07641 36711 ft 446 kts 263°
2026-05-06 02:08 34.12256 -116.11390 35664 ft 454 kts 263°
2026-05-06 02:08 34.11881 -116.15201 34646 ft 462 kts 263°
2026-05-06 02:09 34.11497 -116.19081 33628 ft 468 kts 264°
2026-05-06 02:09 34.11109 -116.23000 32520 ft 472 kts 264°
2026-05-06 02:09 34.10716 -116.26956 31484 ft 477 kts 264°
2026-05-06 02:09 34.10335 -116.30760 30779 ft 475 kts 264°
2026-05-06 02:10 34.09924 -116.34684 30222 ft 469 kts 264°
2026-05-06 02:10 34.09506 -116.38564 29633 ft 462 kts 264°
2026-05-06 02:10 34.09092 -116.42384 28934 ft 456 kts 264°
2026-05-06 02:10 34.08684 -116.46151 28240 ft 450 kts 264°
2026-05-06 02:11 34.08287 -116.49833 27543 ft 446 kts 264°
2026-05-06 02:11 34.07890 -116.53521 26850 ft 441 kts 264°
2026-05-06 02:11 34.07495 -116.57176 26187 ft 437 kts 264°
2026-05-06 02:11 34.07112 -116.60798 25544 ft 433 kts 265°
2026-05-06 02:12 34.06771 -116.64388 24925 ft 428 kts 265°
2026-05-06 02:12 34.06451 -116.67945 24272 ft 426 kts 265°
2026-05-06 02:12 34.06133 -116.71483 23639 ft 423 kts 265°
2026-05-06 02:12 34.05812 -116.74992 22993 ft 419 kts 265°
2026-05-06 02:13 34.05491 -116.78458 22372 ft 413 kts 265°
2026-05-06 02:13 34.05278 -116.80734 21951 ft 410 kts 265°
2026-05-06 02:13 34.04959 -116.84137 21361 ft 406 kts 265°
2026-05-06 02:13 34.04641 -116.87501 20797 ft 401 kts 265°
2026-05-06 02:14 34.04304 -116.90823 20208 ft 397 kts 263°
2026-05-06 02:14 34.03875 -116.94095 19680 ft 393 kts 262°
2026-05-06 02:14 34.03430 -116.97331 19138 ft 389 kts 262°
2026-05-06 02:14 34.03000 -117.00540 18594 ft 386 kts 263°
2026-05-06 02:15 34.02584 -117.03724 18045 ft 382 kts 263°
2026-05-06 02:15 34.02205 -117.06842 17464 ft 379 kts 263°
2026-05-06 02:15 34.01836 -117.10014 16882 ft 376 kts 264°
2026-05-06 02:15 34.01481 -117.13063 16543 ft 367 kts 264°
2026-05-06 02:16 34.01130 -117.16050 16422 ft 353 kts 264°
2026-05-06 02:16 34.00783 -117.18961 16246 ft 341 kts 264°
2026-05-06 02:16 34.00454 -117.21719 15959 ft 334 kts 264°
2026-05-06 02:16 34.00126 -117.24474 15537 ft 331 kts 264°
2026-05-06 02:17 33.99797 -117.27222 15114 ft 330 kts 264°
2026-05-06 02:17 33.99470 -117.29931 14851 ft 322 kts 264°
2026-05-06 02:17 33.99155 -117.32573 14601 ft 315 kts 263°
2026-05-06 02:17 33.98851 -117.35169 14292 ft 310 kts 264°
2026-05-06 02:18 33.98550 -117.37740 13902 ft 309 kts 264°
2026-05-06 02:18 33.98250 -117.40297 13472 ft 308 kts 264°
2026-05-06 02:18 33.97955 -117.42815 13045 ft 307 kts 264°
2026-05-06 02:18 33.97654 -117.45355 12636 ft 305 kts 264°
2026-05-06 02:19 33.97358 -117.47874 12213 ft 302 kts 265°
2026-05-06 02:19 33.97419 -117.50358 12090 ft 297 kts 283°
2026-05-06 02:19 33.97876 -117.52811 12098 ft 301 kts 285°
2026-05-06 02:19 33.98344 -117.55264 12102 ft 300 kts 285°
2026-05-06 02:20 33.99263 -117.60252 11283 ft 305 kts 284°
2026-05-06 02:20 33.99708 -117.62750 10876 ft 302 kts 284°
2026-05-06 02:20 34.00135 -117.65170 10479 ft 289 kts 284°
2026-05-06 02:21 34.00544 -117.67500 10117 ft 282 kts 283°
2026-05-06 02:21 34.00655 -117.69830 9791 ft 278 kts 268°
2026-05-06 02:21 34.00429 -117.72104 9486 ft 275 kts 264°
2026-05-06 02:21 34.00167 -117.74371 9187 ft 272 kts 264°
2026-05-06 02:22 33.99910 -117.76617 8894 ft 269 kts 265°
2026-05-06 02:22 33.99673 -117.78837 8615 ft 266 kts 265°
2026-05-06 02:22 33.99450 -117.81036 8338 ft 262 kts 265°
2026-05-06 02:22 33.99234 -117.83204 8065 ft 259 kts 265°
2026-05-06 02:23 33.99024 -117.85347 7795 ft 255 kts 265°
2026-05-06 02:23 33.98819 -117.87461 7528 ft 253 kts 265°
2026-05-06 02:23 33.98614 -117.89556 7254 ft 250 kts 265°
2026-05-06 02:23 33.98411 -117.91619 7002 ft 247 kts 265°
2026-05-06 02:24 33.98212 -117.93641 6743 ft 244 kts 265°
2026-05-06 02:24 33.98009 -117.95692 6489 ft 243 kts 265°
2026-05-06 02:24 33.97812 -117.97703 6214 ft 241 kts 265°
2026-05-06 02:24 33.97617 -117.99673 5954 ft 238 kts 265°
2026-05-06 02:25 33.97429 -118.01670 5694 ft 235 kts 265°
2026-05-06 02:25 33.97256 -118.03586 5453 ft 232 kts 264°
2026-05-06 02:25 33.97069 -118.05514 5222 ft 229 kts 264°
2026-05-06 02:25 33.96883 -118.07364 4974 ft 227 kts 263°
2026-05-06 02:26 33.96691 -118.09257 4675 ft 227 kts 263°
2026-05-06 02:26 33.96499 -118.11139 4386 ft 225 kts 263°
2026-05-06 02:26 33.96310 -118.12994 4119 ft 221 kts 263°
2026-05-06 02:26 33.96124 -118.14823 3815 ft 219 kts 263°
2026-05-06 02:27 33.95945 -118.16584 3528 ft 206 kts 263°
2026-05-06 02:27 33.95773 -118.18267 3264 ft 199 kts 263°
2026-05-06 02:27 33.95610 -118.19870 3088 ft 182 kts 263°
2026-05-06 02:27 33.95461 -118.21325 2890 ft 171 kts 263°
2026-05-06 02:28 33.95320 -118.22719 2682 ft 163 kts 263°
2026-05-06 02:28 33.95186 -118.24027 2480 ft 153 kts 263°
2026-05-06 02:28 33.95060 -118.25274 2279 ft 146 kts 263°
2026-05-06 02:28 33.94940 -118.26455 2079 ft 140 kts 263°
2026-05-06 02:29 33.94821 -118.27612 1900 ft 137 kts 264°
2026-05-06 02:29 33.94705 -118.28752 1728 ft 136 kts 264°
2026-05-06 02:29 33.94592 -118.29872 1603 ft 131 kts 263°
2026-05-06 02:29 33.94478 -118.30987 1450 ft 138 kts 263°
2026-05-06 02:30 33.94348 -118.32177 1113 ft 144 kts 263°
2026-05-06 02:30 33.94239 -118.33305 979 ft 129 kts 264°
2026-05-06 02:30 33.94133 -118.34408 833 ft 139 kts 263°
2026-05-06 02:30 33.94017 -118.35578 621 ft 138 kts 262°
2026-05-06 02:31 33.93904 -118.36692 363 ft 131 kts 261°
2026-05-06 02:31 33.93787 -118.37773 214 ft 131 kts 261°
2026-05-06 02:31 33.93681 -118.38815 113 ft 116 kts 262°
2026-05-06 02:31 33.93599 -118.39639 112 ft 78 kts 262°
2026-05-06 02:32 33.93550 -118.40129 112 ft 49 kts 262°
2026-05-06 02:32 33.93549 -118.40505 115 ft 41 kts 288°
2026-05-06 02:32 33.93596 -118.40645 108 ft 9 kts 286°
2026-05-06 02:32 33.93598 -118.40715 110 ft 4 kts 261°
2026-05-06 02:33 33.93595 -118.40739 110 ft 3 kts 261°
2026-05-06 02:33 33.93594 -118.40746 108 ft 0 kts 261°
2026-05-06 02:35 33.93592 -118.40768 109 ft 12 kts 262°
2026-05-06 02:35 33.93610 -118.40866 110 ft 12 kts 310°
2026-05-06 02:35 33.93689 -118.40898 111 ft 13 kts 353°
2026-05-06 02:36 33.93770 -118.40936 107 ft 13 kts 303°
2026-05-06 02:36 33.93772 -118.41050 106 ft 15 kts 263°
2026-05-06 02:36 33.93810 -118.41152 105 ft 16 kts 339°
2026-05-06 02:36 33.93925 -118.41170 103 ft 17 kts 353°
2026-05-06 02:37 33.94039 -118.41186 100 ft 15 kts 353°
2026-05-06 02:37 33.94139 -118.41201 101 ft 9 kts 353°
2026-05-06 02:37 33.94203 -118.41210 100 ft 9 kts 352°
2026-05-06 02:37 33.94267 -118.41220 101 ft 9 kts 353°
2026-05-06 02:38 33.94331 -118.41228 101 ft 9 kts 354°
2026-05-06 02:38 33.94386 -118.41196 102 ft 9 kts 53°
2026-05-06 02:38 33.94395 -118.41141 101 ft 6 kts 87°
2026-05-06 02:38 33.94396 -118.41130 101 ft 0 kts 86°